N2RFA-13 Weather Reports


time (UTC)temp
C
wind
direction
speed
KPH
gust
KPH
rain 1hr
cm
rain 24hr
cm
rain mn
cm
humidity
%
barometer
mb
20260506103040 -17 159 1.6 4.8 0.00 0.00 0.00 81 1009.5
20260506101536 17 118 1.6 6.4 0.00 0.00 0.00 81 1009.2
20260506100038 17 134 1.6 6.4 0.00 0.00 0.00 81 1009.4
20260506094546 17 167 1.6 4.8 0.00 0.00 0.00 81 1009.1
20260506093038 17 154 1.6 4.8 0.00 0.00 0.00 81 1009.3
20260506091532 16 161 1.6 4.8 0.00 0.00 0.00 81 1009.4
20260506090030 16 152 0.0 3.2 0.00 0.00 0.00 81 1009.4
20260506084529 17 155 0.0 6.4 0.00 0.00 0.00 80 1009.6
20260506083027 17 148 1.6 4.8 0.00 0.00 0.00 79 1009.6
20260506081532 17 144 0.0 3.2 0.00 0.00 0.00 78 1009.7
20260506073019 17 156 1.6 4.8 0.00 0.00 0.00 74 1009.8
20260506071520 18 146 0.0 3.2 0.00 0.00 0.00 73 1009.7
20260506061515 18 143 0.0 4.8 0.00 0.00 0.00 70 1010.0
20260506044614 19 153 1.6 8.0 0.00 0.00 0.00 66 1010.8
20260506043058 19 155 1.6 8.0 0.00 0.00 0.00 66 1010.7
20260506041557 19 205 1.6 6.4 0.00 0.00 0.00 65 1010.8
20260506040054 19 194 1.6 12.9 0.00 0.00 0.00 65 1010.7
20260506034553 20 194 1.6 9.7 0.00 0.00 0.00 64 1010.6
20260506033055 20 194 3.2 9.7 0.00 0.00 0.00 63 1010.7
20260506031557 20 194 1.6 9.7 0.00 0.00 0.00 62 1010.6
20260506030052 20 194 3.2 11.3 0.00 0.00 0.00 60 1010.5
20260506024558 21 146 3.2 8.0 0.00 0.00 0.00 58 1010.5
20260506023053 21 148 3.2 9.7 0.00 0.00 0.00 55 1010.5
20260506021550 21 119 1.6 6.4 0.00 0.00 0.00 52 1010.5
20260506020050 21 148 3.2 8.0 0.00 0.00 0.00 51 1010.3
20260506014549 22 154 1.6 6.4 0.00 0.00 0.00 50 1010.3
20260506013050 22 149 1.6 9.7 0.00 0.00 0.00 50 1010.1
20260506011548 22 158 1.6 8.0 0.00 0.00 0.00 49 1010.1
20260506010048 22 146 1.6 6.4 0.00 0.00 0.00 48 1009.8
20260506004549 22 143 1.6 6.4 0.00 0.00 0.00 46 1009.7
20260506003047 23 194 1.6 9.7 0.00 0.00 0.00 44 1009.6
20260506001550 23 205 1.6 4.8 0.00 0.00 0.00 43 1009.3
20260506000045 23 194 1.6 6.4 0.00 0.00 0.00 42 1009.3
20260505234549 23 194 1.6 8.0 0.00 0.00 0.00 41 1009.2
20260505233044 24 131 3.2 8.0 0.00 0.00 0.00 39 1009.2
20260505231557 24 153 1.6 6.4 0.00 0.00 0.00 39 1009.0
20260505230055 24 150 0.0 4.8 0.00 0.00 0.00 38 1008.9
20260505224543 25 144 1.6 8.0 0.00 0.00 0.00 37 1008.7
20260505223042 25 164 4.8 9.7 0.00 0.00 0.00 36 1008.6
20260505221542 25 194 1.6 6.4 0.00 0.00 0.00 36 1008.7
20260505220042 25 194 3.2 11.3 0.00 0.00 0.00 35 1008.5
20260505214542 26 127 3.2 14.5 0.00 0.00 0.00 34 1008.3
20260505213051 26 158 1.6 14.5 0.00 0.00 0.00 35 1008.3
20260505211542 26 167 1.6 9.7 0.00 0.00 0.00 34 1008.1
20260505210039 26 135 3.2 9.7 0.00 0.00 0.00 35 1008.0
20260505204537 26 125 1.6 12.9 0.00 0.00 0.00 36 1007.9
20260505203039 26 133 3.2 14.5 0.00 0.00 0.00 38 1008.0
20260505201537 26 163 3.2 12.9 0.00 0.00 0.00 38 1008.2
20260505200134 26 194 6.4 12.9 0.00 0.00 0.00 36 1008.3
20260505194534 27 179 4.8 11.3 0.00 0.00 0.00 38 1008.3
20260505193032 27 194 3.2 9.7 0.00 0.00 0.00 37 1008.3
20260505191533 27 169 3.2 12.9 0.00 0.00 0.00 38 1008.4
20260505190034 27 149 4.8 12.9 0.00 0.00 0.00 37 1008.7
20260505184528 27 138 4.8 12.9 0.00 0.00 0.00 33 1008.8
20260505183033 27 173 4.8 11.3 0.00 0.00 0.00 36 1009.2
20260505181524 26 122 4.8 9.7 0.00 0.00 0.00 39 1009.3
20260505180042 27 177 4.8 12.9 0.00 0.00 0.00 38 1009.6
20260505174522 27 156 3.2 14.5 0.00 0.00 0.00 41 1009.5
20260505173021 27 176 4.8 14.5 0.00 0.00 0.00 41 1009.7
20260505171518 27 160 3.2 12.9 0.00 0.00 0.00 41 1009.9
20260505170016 27 113 3.2 9.7 0.00 0.00 0.00 42 1010.0
20260505164515 27 153 1.6 11.3 0.00 0.00 0.00 44 1010.2
20260505163014 27 148 3.2 9.7 0.00 0.00 0.00 43 1010.3
20260505161511 27 122 1.6 9.7 0.00 0.00 0.00 43 1010.4
20260505153005 25 145 3.2 8.0 0.00 0.00 0.00 48 1011.2
20260505151559 25 160 3.2 8.0 0.00 0.00 0.00 48 1011.1
20260505124525 18 143 1.6 6.4 0.00 0.00 0.00 67 1011.5
20260505123029 17 145 0.0 4.8 0.00 0.00 0.00 73 1011.3
20260505121515 15 134 1.6 4.8 0.00 0.00 0.00 81 1011.4
20260505120019 13 133 0.0 0.0 0.00 0.00 0.00 93 1011.5
20260505114507 12 133 0.0 1.6 0.00 0.00 0.00 93 1011.7
20260505113004 12 133 0.0 0.0 0.00 0.00 0.00 92 1011.7
20260505111509 11 133 0.0 1.6 0.00 0.00 0.00 92 1011.4